Location: Keewatin
(47.4004°N, 93.0827°W)
Time: 11:20:47
(UTC+00:00)

Envisat - Pass Details

Date: 15 December 2019
Orbit: 764 x 766 km, 98.1° (Epoch: 18 January)

Event Time Altitude Azimuth Distance (km) Brightness Sun altitude
Rises 11:34:50 0° 31° (NNE) 3,243 6.5 -22.2°
Reaches altitude 10° 11:38:26 10° 57° (ENE) 2,310 6.1 -21.7°
Maximum altitude 11:40:55 14° 87° (E) 2,064 6.2 -21.2°
Drops below altitude 10° 11:43:24 10° 117° (ESE) 2,300 6.6 -20.8°
Sets 11:46:56 0° 143° (SE) 3,220 7.0 -20.2°
